Regional Weather Roundup
Issued by NWS Little Rock, AR

Home | Current Version | Previous Version | Text Only | Print | Product List | Glossary Off
Versions: 1 2 3 4 5 6 7 8 9 10 11 12 13 14 15 16 17 18 19 20 21 22 23 24 25 26 27 28 29 30 31 32 33 34 35 36 37 38 39 40 41 42 43 44 45 46 47 48 49 50

000
ASUS44 KLZK 030605
RWRLZK

WEATHER ROUNDUP FOR ARKANSAS
NATIONAL WEATHER SERVICE LITTLE ROCK AR
100 AM CDT FRI JUL 03 2015

NOTE: "FAIR" INDICATES FEW OR NO CLOUDS BELOW 12,000 FEET WITH NO
SIGNIFICANT WEATHER AND/OR OBSTRUCTIONS TO VISIBILITY.

ARZ001-003-010-029-030700-
NORTHWEST ARKANSAS

CITY           SKY/WX    TMP DP  RH WIND       PRES   REMARKS
FAYETTEVILLE   CLOUDY    69  68  96 SW5       29.94F
6HR MIN TEMP:  68; 6HR MAX TEMP:  77; 6HR PCP:  0.04;

FORT SMITH     CLOUDY    75  71  87 SW6       29.91F
6HR MIN TEMP:  75; 6HR MAX TEMP:  84; 6HR PCP:  0.08;

HARRISON       CLOUDY    71  67  87 CALM      29.94F
6HR MIN TEMP:  69; 6HR MAX TEMP:  75; 6HR PCP:  0.01;

BENTONVILLE    CLOUDY    70  63  78 SW7       29.94F
                                      6HR PCP:  0.13;

ROGERS         MOCLDY    69  65  86 SW12      29.94F
6HR MIN TEMP:  69; 6HR MAX TEMP:  76; 6HR PCP:  0.55;

SILOAM SPGS    MOCLDY    68  63  83 SE3         N/A
6HR MIN TEMP:  68; 6HR MAX TEMP:  72; 6HR PCP:  1.12;

HIGHFILL       MOCLDY    68  67  96 S3        29.93F
6HR MIN TEMP:  68; 6HR MAX TEMP:  78; 6HR PCP:  0.08;

$$

ARZ004-005-016-030700-
NORTH CENTRAL ARKANSAS

CITY           SKY/WX    TMP DP  RH WIND       PRES   REMARKS
BATESVILLE     CLOUDY    72  70  94 CALM      29.89F
6HR MIN TEMP:  72; 6HR MAX TEMP:  84; 6HR PCP:  0.16;

FLIPPIN        MOCLDY    72  66  83 CALM      29.90S
6HR MIN TEMP:  72; 6HR MAX TEMP:  82;

MTN HOME       CLOUDY    70  69  97 CALM      29.91F
6HR MIN TEMP:  70; 6HR MAX TEMP:  79; 6HR PCP: TRACE;

$$

ARZ040-041-030700-
WEST CENTRAL ARKANSAS

CITY           SKY/WX    TMP DP  RH WIND       PRES   REMARKS
MENA           CLOUDY    81  72  74 W6        29.96F
MOUNT IDA      CLOUDY    78  72  81 CALM      29.92F
6HR MIN TEMP:  78; 6HR MAX TEMP:  83;

$$

ARZ009-017-025-026-028-030700-
NORTHEAST ARKANSAS

CITY           SKY/WX    TMP DP  RH WIND       PRES   REMARKS
JONESBORO      CLOUDY    71  70  96 CALM      29.89R
6HR MIN TEMP:  69; 6HR MAX TEMP:  85; 6HR PCP:  0.58;

NEWPORT        LGT RAIN  72  71  96 SW5       29.90F
6HR MIN TEMP:  71; 6HR MAX TEMP:  87; 6HR PCP:  0.71;

WALNUT RIDGE   CLOUDY    72  66  83 W5        29.89F
6HR MIN TEMP:  70; 6HR MAX TEMP:  82; 6HR PCP:  0.76;

BLYTHEVILLE    CLOUDY    72  70  93 CALM      29.85F
6HR MIN TEMP:  72; 6HR MAX TEMP:  80; 6HR PCP:  0.23;

$$

ARZ022-023-033-042-044-030700-
CENTRAL ARKANSAS

CITY           SKY/WX    TMP DP  RH WIND       PRES   REMARKS
LITTLE ROCK    LGT RAIN  79  72  79 W9        29.93S
6HR MIN TEMP:  79; 6HR MAX TEMP:  87; 6HR PCP:  0.01;

N LITTLE ROCK    N/A     75  74  95 W6        29.93S
6HR MIN TEMP:  75; 6HR MAX TEMP:  85;

JACKSONVILLE   LGT RAIN  76  73  89 SW12      29.91F
6HR MIN TEMP:  76; 6HR MAX TEMP:  87; 6HR PCP: TRACE;

SEARCY         CLOUDY    76  72  87 VRB3      29.91F
6HR MIN TEMP:  76; 6HR MAX TEMP:  86; 6HR PCP: TRACE;

HOT SPRINGS    CLOUDY    76  74  93 VRB3      29.95S
6HR MIN TEMP:  76; 6HR MAX TEMP:  85; 6HR PCP:  0.02;

RUSSELLVILLE   CLOUDY    72  71  97 CALM      29.92F
6HR MIN TEMP:  72; 6HR MAX TEMP:  84; 6HR PCP:  0.23;

CLINTON        FAIR      72  72 100 CALM      29.91
$$

ARZ036-030700-
EAST ARKANSAS

CITY           SKY/WX    TMP DP  RH WIND       PRES   REMARKS
WEST MEMPHIS   CLOUDY    70  70 100 CALM      29.88F
6HR MIN TEMP:  70; 6HR MAX TEMP:  85; 6HR PCP:  0.07;

$$

ARZ050-053-066-070-073-030700-
SOUTHWEST ARKANSAS

CITY           SKY/WX    TMP DP  RH WIND       PRES   REMARKS
ARKADELPHIA    FAIR      79  75  87 SW5       29.93F
6HR MIN TEMP:  78; 6HR MAX TEMP:  86;

CAMDEN         CLOUDY    77  72  83 MISG      29.95F
TEXARKANA      CLOUDY    79  73  82 S8        29.95F
6HR MIN TEMP:  79; 6HR MAX TEMP:  87;

EL DORADO      CLOUDY    78  72  81 SW6       29.98S
6HR MIN TEMP:  77; 6HR MAX TEMP:  85;

DE QUEEN       CLOUDY    76  74  93 CALM      29.92F
6HR MIN TEMP:  76; 6HR MAX TEMP:  85;

$$

ARZ056-057-069-030700-
SOUTHEAST ARKANSAS

CITY           SKY/WX    TMP DP  RH WIND       PRES   REMARKS
PINE BLUFF     CLOUDY    80  72  76 SW8       29.93F
6HR MIN TEMP:  79; 6HR MAX TEMP:  86; 6HR PCP: TRACE;

STUTTGART      CLOUDY    81  72  74 SW12      29.90F
6HR MIN TEMP:  81; 6HR MAX TEMP:  86;

MONTICELLO     CLOUDY    80  74  81 SW8       29.95F HX  85
6HR MIN TEMP:  80; 6HR MAX TEMP:  86;


$$





USA.gov is the U.S. government's official web portal to all federal, state and local government web resources and services.